Simultaneous Nadir Overpasses (SNOs) Predictions

Prediction of SNOs between AQUA and NPP Satellite Orbit:

Table of predicted SNOs for the next 14.0 days since TLE Epoch: 6/8/2017
Index Date (AQUA) Time (AQUA) Lat,Lon (AQUA) SZA (AQUA ) Date (NPP) Time (NPP) Lat,Lon (NPP) SZA (NPP ) Distance(km) Time Diff (sec)
1 06/09/2017 14:05:27 -74.95, 24.73 104.08 06/09/2017 14:04:50 -74.95, 24.70 104.04 0.96 37
2 06/09/2017 14:54:29 76.13,-164.26 74.56 06/09/2017 14:55:09 76.13,-164.28 74.53 0.62 40
3 06/12/2017 06:21:42 -75.60, 142.39 104.98 06/12/2017 06:21:31 -75.61, 142.45 104.99 2.15 11
4 06/12/2017 07:10:53 76.32, -47.77 74.18 06/12/2017 07:12:00 76.31, -47.87 74.15 2.77 67
5 06/14/2017 21:48:59 74.71, 88.25 75.93 06/14/2017 21:47:58 74.72, 88.29 75.98 1.12 61
6 06/14/2017 22:38:04 -75.84,-101.02 105.37 06/14/2017 22:38:20 -75.84,-101.02 105.38 0.08 16
7 06/17/2017 14:05:21 75.00,-155.13 75.55 06/17/2017 14:04:47 75.00,-155.14 75.58 0.47 34
8 06/17/2017 14:54:27 -76.08, 15.58 105.70 06/17/2017 14:55:10 -76.07, 15.52 105.72 1.70 43
9 06/20/2017 06:21:42 75.33, -38.36 75.16 06/20/2017 06:21:35 75.33, -38.41 75.18 1.55 7




NCC Satellite Simultaneous Nadir Overpasses (SNOs) Prediction Service
